Weather History for Moline, IL

Change the Weather History Date:

Friday, February 22, 2013

  Actual Average Record
Temperature  
Mean Temperature 28 °F 29 °F  
Max Temperature 32 °F 38 °F 66 °F (1922)
Min Temperature 24 °F 21 °F -9 °F (1978)
Degree Days  
Heating Degree Days 37 36  
Month to date heating degree days 841 860  
Since 1 July heating degree days 4413 4594  
Cooling Degree Days 0 0  
Month to date cooling degree days 0 0  
Year to date cooling degree days 0 0  
Moisture  
Dew Point 23 °F    
Average Humidity 81    
Maximum Humidity 92    
Minimum Humidity 69    
Precipitation  
Precipitation 0.07 in 0.07 in 1.08 in (1981)
Month to date precipitation 1.85 1.16  
Year to date precipitation 4.71 2.65  
Snow  
Snow 0.50 in 0.20 in - ()
Month to date snowfall 5.4 5.6  
Since 1 July snowfall 15.0 25.5  
Snow Depth 3.00 in    
Sea Level Pressure  
Sea Level Pressure 29.87 in    
Wind  
Wind Speed 11 mph (SSW)    
Max Wind Speed 20 mph    
Max Gust Speed 25 mph    
Visibility 6 miles    
Events Snow    
T = Trace of Precipitation, MM = Missing Value Source: NWS Daily Summary

Daily Weather History Graph

Daily Weather History Graph

Search for Another Location

Airport:

Trip Planner

Search our weather history database for the weather conditions in past years. The results will help you decide how hot, cold, wet, or windy it might be!

Date:

Astronomy

Feb. 22, 2013 Rise Set
Actual Time 6:46 AM CST 5:44 PM CST
Civil Twilight 6:18 AM CST 6:12 PM CST
Nautical Twilight 5:46 AM CST 6:44 PM CST
Astronomical Twilight 5:14 AM CST 7:16 PM CST
Moon 2:54 PM CST (2/22) 4:33 AM CST (2/22)
Length of Visible Light 11h 53m
Length of Day
10h 57m
Waxing Gibbous, 90% of the Moon is Illuminated
Feb 22
Waxing Gibbous
Feb 25
Full
Mar 4
Last Quarter
Mar 11
New
Mar 19
First Quarter

Hourly Weather History & Observations

Time (CST) Temp. Windchill Dew Point Humidity Pressure Visibility Wind Dir Wind Speed Gust Speed Precip Events Conditions
12:05 AM 24.8 °F 12.4 °F 21.2 °F 86% 29.88 in 1.0 mi East 15.0 mph - 0.00 in Snow Light Snow
12:20 AM 24.8 °F 12.9 °F 21.2 °F 86% 29.87 in 0.8 mi East 13.8 mph - 0.01 in Snow Light Snow
12:50 AM 24.8 °F 13.4 °F 21.2 °F 86% 29.87 in 2.0 mi East 12.7 mph - 0.02 in Snow Light Snow
12:51 AM 25.0 °F 13.6 °F 23.0 °F 92% 29.89 in 2.0 mi East 12.7 mph - 0.02 in Snow Light Snow
12:56 AM 24.8 °F 13.4 °F 21.2 °F 86% 29.87 in 3.0 mi East 12.7 mph - 0.00 in Snow Light Snow
1:02 AM 24.8 °F 12.9 °F 21.2 °F 86% 29.87 in 2.5 mi East 13.8 mph - 0.00 in Snow Light Snow
1:15 AM 24.8 °F 13.4 °F 21.2 °F 86% 29.86 in 3.0 mi East 12.7 mph - 0.01 in Snow Light Snow
1:52 AM 25.0 °F 13.1 °F 21.9 °F 88% 29.87 in 8.0 mi East 13.8 mph - 0.01 in   Overcast
2:52 AM 26.1 °F 14.5 °F 21.9 °F 84% 29.85 in 9.0 mi East 13.8 mph - N/A   Overcast
3:52 AM 26.1 °F 15.6 °F 23.0 °F 88% 29.82 in 8.0 mi East 11.5 mph - N/A   Overcast
4:49 AM 26.6 °F 17.5 °F 23.0 °F 86% 29.78 in 6.0 mi East 9.2 mph - N/A   Overcast
4:52 AM 26.1 °F 16.2 °F 23.0 °F 88% 29.80 in 6.0 mi East 10.4 mph - N/A   Overcast
5:52 AM 26.6 °F 19.1 °F 24.8 °F 93% 29.77 in 3.0 mi East 6.9 mph - N/A   Overcast
6:52 AM 27.0 °F 20.5 °F 24.1 °F 89% 29.79 in 2.5 mi East 5.8 mph - N/A   Overcast
7:04 AM 26.6 °F 20.0 °F 24.8 °F 93% 29.77 in 1.2 mi East 5.8 mph - 0.00 in Snow Light Snow
7:27 AM 26.6 °F 21.2 °F 24.8 °F 93% 29.77 in 0.8 mi ENE 4.6 mph - 0.01 in Snow Light Snow
7:50 AM 26.6 °F 20.0 °F 24.8 °F 93% 29.78 in 1.0 mi East 5.8 mph - 0.02 in Snow Light Snow
7:52 AM 27.0 °F 20.5 °F 25.0 °F 92% 29.80 in 0.8 mi East 5.8 mph - 0.02 in Snow Light Snow
8:19 AM 26.6 °F 21.2 °F 26.6 °F 100% 29.78 in 1.0 mi East 4.6 mph - 0.00 in Snow Light Snow
8:52 AM 28.0 °F - 26.1 °F 92% 29.81 in 1.2 mi Calm Calm - 0.01 in Snow Light Snow
9:11 AM 28.4 °F - 26.6 °F 93% 29.79 in 1.2 mi Calm Calm - 0.00 in Snow Light Snow
9:18 AM 28.4 °F - 26.6 °F 93% 29.79 in 1.5 mi Calm Calm - 0.01 in Snow Light Snow
9:29 AM 28.4 °F - 26.6 °F 93% 29.80 in 2.0 mi Calm Calm - 0.01 in   Overcast
9:52 AM 30.0 °F - 27.0 °F 88% 29.82 in 2.5 mi Calm Calm - 0.01 in   Overcast
10:52 AM 32.0 °F 24.8 °F 27.0 °F 82% 29.83 in 4.0 mi SW 8.1 mph - N/A   Haze
11:52 AM 30.9 °F 21.2 °F 26.1 °F 82% 29.84 in 10.0 mi WSW 12.7 mph 20.7 mph N/A   Overcast
12:12 PM 30.2 °F 20.8 °F 26.6 °F 86% 29.82 in 9.0 mi WSW 11.5 mph - N/A   Overcast
12:52 PM 30.0 °F 18.3 °F 24.1 °F 79% 29.84 in 9.0 mi WSW 17.3 mph 24.2 mph N/A   Overcast
1:52 PM 30.0 °F 20.0 °F 24.1 °F 79% 29.86 in 7.0 mi WSW 12.7 mph - N/A   Overcast
2:52 PM 30.0 °F 18.3 °F 23.0 °F 75% 29.88 in 7.0 mi WSW 17.3 mph 23.0 mph N/A   Overcast
3:52 PM 30.0 °F 20.0 °F 21.9 °F 72% 29.89 in 9.0 mi West 12.7 mph - N/A   Overcast
4:52 PM 28.9 °F 17.7 °F 21.0 °F 72% 29.91 in 9.0 mi WSW 15.0 mph 24.2 mph N/A   Overcast
5:52 PM 28.9 °F 18.2 °F 21.0 °F 72% 29.93 in 8.0 mi West 13.8 mph - N/A   Overcast
6:52 PM 28.0 °F 17.5 °F 21.9 °F 78% 29.94 in 8.0 mi West 12.7 mph - 0.00 in   Overcast
7:34 PM 28.4 °F 18.0 °F 21.2 °F 74% 29.93 in 5.0 mi West 12.7 mph - 0.00 in Snow Light Snow
7:52 PM 28.0 °F 18.6 °F 21.9 °F 78% 29.96 in 7.0 mi West 10.4 mph - 0.00 in   Overcast
8:52 PM 26.1 °F 15.0 °F 19.9 °F 78% 29.97 in 9.0 mi West 12.7 mph - N/A   Mostly Cloudy
9:06 PM 24.8 °F 12.9 °F 19.4 °F 80% 29.95 in 9.0 mi West 13.8 mph - N/A   Mostly Cloudy
9:14 PM 24.8 °F 12.4 °F 19.4 °F 80% 29.95 in 10.0 mi West 15.0 mph - N/A   Scattered Clouds
9:29 PM 24.8 °F 12.9 °F 19.4 °F 80% 29.95 in 9.0 mi West 13.8 mph 20.7 mph N/A   Mostly Cloudy
9:52 PM 25.0 °F 14.2 °F 19.9 °F 81% 29.98 in 9.0 mi WSW 11.5 mph - N/A   Overcast
10:15 PM 24.8 °F 14.0 °F 19.4 °F 80% 29.96 in 9.0 mi WSW 11.5 mph - N/A   Overcast
10:26 PM 24.8 °F 14.0 °F 19.4 °F 80% 29.96 in 9.0 mi WSW 11.5 mph - N/A   Overcast
10:43 PM 24.8 °F 14.0 °F 19.4 °F 80% 29.96 in 9.0 mi WSW 11.5 mph - N/A   Overcast
10:52 PM 25.0 °F 14.8 °F 19.0 °F 78% 29.98 in 9.0 mi WSW 10.4 mph - N/A   Overcast
11:52 PM 25.0 °F 14.2 °F 18.0 °F 75% 29.97 in 9.0 mi WSW 11.5 mph - N/A   Overcast